Change the Weather History Date:

Friday, November 7, 2014

  Actual Average Record
Temperature  
Mean Temperature 36 °F -  
Max Temperature 41 °F 44 °F 64 °F (2001)
Min Temperature 32 °F 31 °F 14 °F (2007)
Degree Days  
Heating Degree Days 28    
Moisture  
Dew Point 31 °F    
Average Humidity 78    
Maximum Humidity 100    
Minimum Humidity 57    
Precipitation  
Precipitation 0.02 in - - ()
Sea Level Pressure  
Sea Level Pressure 29.92 in    
Wind  
Wind Speed 8 mph (South)    
Max Wind Speed 16 mph    
Max Gust Speed 21 mph    
Visibility 10 miles    
Events Rain    
Averages and records for this station are not official NWS values.
T = Trace of Precipitation, MM = Missing Value Source: NWS Daily Summary

Daily Weather History Graph

Daily Weather History Graph

Search for Another Location

Airport or City:

Trip Planner

Search our weather history database for the weather conditions in past years. The results will help you decide how hot, cold, wet, or windy it might be!

Date:

Astronomy

Nov. 07, 2014 Rise Set
Actual Time 6:45 AM CST 4:43 PM CST
Civil Twilight 6:14 AM CST 5:13 PM CST
Nautical Twilight 5:40 AM CST 5:48 PM CST
Astronomical Twilight 5:06 AM CST 6:22 PM CST
Moon 5:35 PM CST (11/7) 7:21 AM CST (11/7)
Length of Visible Light 10h 59m
Length of Day
9h 58m
Full, 99% of the Moon is Illuminated
Nov 7
Full
Nov 14
Last Quarter
Nov 22
New
Nov 29
First Quarter
Dec 6
Full

Hourly Weather History & Observations

Time (CST) Temp. Windchill Dew Point Humidity Pressure Visibility Wind Dir Wind Speed Gust Speed Precip Events Conditions
12:58 AM 32.7 °F - 32.5 °F 99% 30.24 in 10.0 mi North 2.3 mph - N/A   Overcast
1:58 AM 32.7 °F - 32.5 °F 99% 30.24 in 10.0 mi Calm Calm - N/A   Overcast
2:58 AM 32.9 °F 27.5 °F 31.5 °F 94% 30.21 in 10.0 mi West 5.8 mph - N/A   Overcast
3:58 AM 33.1 °F 28.7 °F 31.5 °F 94% 30.20 in 10.0 mi West 4.6 mph - N/A   Overcast
4:58 AM 34.3 °F 28.4 °F 29.5 °F 82% 30.19 in 10.0 mi West 6.9 mph - N/A   Overcast
5:58 AM 34.0 °F 31.0 °F 28.6 °F 81% 30.18 in 10.0 mi SW 3.5 mph - N/A   Overcast
6:58 AM 32.0 °F 24.8 °F 26.6 °F 80% 30.17 in 10.0 mi SSW 8.1 mph - N/A   Scattered Clouds
7:58 AM 33.8 °F 26.4 °F 26.6 °F 75% 30.15 in 10.0 mi SSW 9.2 mph - N/A   Mostly Cloudy
8:58 AM 37.4 °F 31.4 °F 26.6 °F 65% 30.14 in 10.0 mi SSW 8.1 mph - N/A   Mostly Cloudy
9:58 AM 39.2 °F 32.0 °F 26.6 °F 61% 30.11 in 10.0 mi South 11.5 mph - N/A   Overcast
10:58 AM 39.2 °F 32.0 °F 26.6 °F 61% 30.09 in 10.0 mi South 11.5 mph - N/A   Overcast
11:58 AM 39.2 °F 33.6 °F 26.6 °F 61% 30.04 in 10.0 mi SSE 8.1 mph - N/A   Overcast
12:58 PM 41.0 °F 35.2 °F 26.6 °F 57% 30.01 in 10.0 mi SSE 9.2 mph - N/A   Overcast
1:58 PM 41.0 °F 35.2 °F 28.4 °F 61% 29.95 in 10.0 mi SSE 9.2 mph - N/A   Overcast
2:58 PM 41.0 °F 34.3 °F 28.4 °F 61% 29.93 in 10.0 mi SSE 11.5 mph - N/A   Clear
3:10 PM 41.0 °F 33.9 °F 30.2 °F 65% 29.88 in 10.0 mi SSE 12.7 mph - N/A Rain Light Rain
3:21 PM 39.2 °F 32.5 °F 32.0 °F 75% 29.87 in 10.0 mi SE 10.4 mph 19.6 mph N/A   Mostly Cloudy
3:58 PM 39.2 °F 33.6 °F 31.3 °F 73% 29.90 in 10.0 mi SSE 8.1 mph - 0.00 in   Clear
4:58 PM 39.2 °F 32.0 °F 30.4 °F 71% 29.85 in 10.0 mi SE 11.5 mph - N/A   Clear
5:58 PM 39.9 °F 32.1 °F 29.5 °F 66% 29.85 in 10.0 mi South 13.8 mph - N/A   Clear
6:58 PM 39.9 °F 33.4 °F 29.7 °F 67% 29.85 in 10.0 mi South 10.4 mph 19.6 mph N/A   Partly Cloudy
7:58 PM 39.6 °F 31.7 °F 30.0 °F 69% 29.82 in 10.0 mi SSE 13.8 mph - N/A   Clear
8:40 PM 39.2 °F 31.2 °F 32.0 °F 75% 29.75 in 10.0 mi South 13.8 mph 18.4 mph N/A   Partly Cloudy
8:42 PM 39.2 °F 31.2 °F 32.0 °F 75% 29.75 in 10.0 mi SSE 13.8 mph 18.4 mph N/A   Clear
8:47 PM 39.2 °F 31.6 °F 32.0 °F 75% 29.75 in 10.0 mi SSE 12.7 mph - N/A   Partly Cloudy
8:50 PM 39.2 °F 30.8 °F 32.0 °F 75% 29.74 in 10.0 mi SSE 15.0 mph - N/A   Partly Cloudy
8:55 PM 39.2 °F 30.8 °F 32.0 °F 75% 29.74 in 10.0 mi SSE 15.0 mph - N/A   Scattered Clouds
8:58 PM 39.2 °F 30.5 °F 32.0 °F 75% 29.78 in 10.0 mi SSE 16.1 mph - 0.00 in   Mostly Cloudy
9:27 PM 37.4 °F 28.5 °F 35.6 °F 93% 29.73 in 10.0 mi South 15.0 mph 20.7 mph N/A   Partly Cloudy
9:58 PM 38.3 °F 30.5 °F 35.4 °F 89% 29.74 in 10.0 mi South 12.7 mph - 0.00 in   Mostly Cloudy
10:03 PM 37.4 °F 28.9 °F 35.6 °F 93% 29.71 in 10.0 mi South 13.8 mph 19.6 mph N/A   Overcast
10:15 PM 37.4 °F 30.3 °F 37.4 °F 100% 29.70 in 10.0 mi South 10.4 mph - N/A Rain Light Rain
10:58 PM 37.4 °F 32.8 °F 37.4 °F 100% 29.72 in 10.0 mi South 5.8 mph - 0.02 in Rain Light Rain
11:00 PM 37.4 °F 31.4 °F 37.4 °F 100% 29.68 in 10.0 mi SSE 8.1 mph - N/A   Mostly Cloudy
11:58 PM 38.7 °F 33.6 °F 38.3 °F 99% 29.71 in 10.0 mi SSW 6.9 mph - 0.00 in   Overcast